Effective Sunday, March 17, 2024, the National Weather Service National Data Buoy Center will discontinue its Dial-A-Buoy Interactive Voice Response system. For more information, see Service Change Notice 24-06 (PDF).

Station PXOC1 - 9414311 - San Francisco Pier 1, CA Image indicating link to RSS feed of recent meteorological observations for station PXOC1


Conditions at PXOC1 as of
(2:18 am PST)
1018 GMT on 02/26/2024:
     

Click on the graph icon in the table below to see a time series plot of the last five days of that observation.

5-day plot - Wind Direction Wind Direction (WDIR):NNW ( 330 deg true )
5-day plot - Wind Speed Wind Speed (WSPD): 4.1 kts
5-day plot - Wind Gust Wind Gust (GST): 4.1 kts
5-day plot - Atmospheric Pressure Atmospheric Pressure (PRES):30.02 in
5-day plot - Air Temperature Air Temperature (ATMP): 54.3 °F
5-day plot - Wind Speed at 10 Meters Wind Speed at 10 meters (WSPD10M): 3.9 kts
5-day plot - Wind Speed at 20 Meters Wind Speed at 20 meters (WSPD20M): 3.9 kts
5-day plot -  Wind Speed, Wind Gust and Atmospheric Pressure Combined plot of Wind Speed, Gust, and Air Pressure
NOS Water Level Observation Network Water Level
Previous observations
TIME
(PST)
5-day plot - Wind Direction
WDIR
 
5-day plot - Wind Speed
WSPD
kts
5-day plot - Wind Gust
GST
kts
5-day plot - Wave Height
WVHT
ft
5-day plot - Dominant Wave Period
DPD
sec
5-day plot - Average Wave Period
APD
sec
5-day plot - Mean Wave Direction
MWD
 
5-day plot - Atmospheric Pressure
PRES
in
5-day plot - Pressure Tendency
PTDY
in
5-day plot - Air Temperature
ATMP
°F
5-day plot - Water Temperature
WTMP
°F
5-day plot - Dew Point
DEWP
°F
5-day plot - Salinity
SAL
psu
5-day plot - Visibility
VIS
nmi
5-day plot - Tide (above MLLW)
TIDE
ft
2024-02-26 02:12 am NW 2.9 4.1----30.02- 54.5-----
2024-02-26 02:06 amNNW 1.9 2.9----30.02- 54.7-----
2024-02-26 02:00 amNNW 1.0 1.9----30.03-0.02 54.9-----
2024-02-26 01:54 amWNW 1.0 2.9----30.03- 54.9-----
2024-02-26 01:48 am W 2.9 4.1----30.03- 55.0-----
2024-02-26 01:42 am W 1.0 4.1----30.03- 55.0-----
2024-02-26 01:36 amSSW 1.9 4.1----30.03- 55.0-----
2024-02-26 01:30 amWSW 4.1 5.1----30.03- 55.2-----
2024-02-26 01:24 am W 1.9 5.1----30.03- 55.4-----
2024-02-26 01:18 am W 4.1 5.1----30.04- 55.2-----
2024-02-26 01:12 am W 4.1 5.1----30.04- 55.2-----
2024-02-26 01:06 amWNW 2.9 6.0----30.03- 55.2-----
2024-02-26 01:00 amWNW 2.9 5.1----30.04-0.01 55.4-----
2024-02-26 12:54 amWNW 2.9 6.0----30.04- 55.4-----
2024-02-26 12:48 amWNW 1.9 6.0----30.04- 55.6-----
2024-02-26 12:42 am NW 4.1 7.0----30.04- 55.6-----
2024-02-26 12:36 amWSW 2.9 5.1----30.04- 55.6-----
2024-02-26 12:30 am W 2.9 7.0----30.05- 55.6-----
2024-02-26 12:24 am W 4.1 5.1----30.05- 55.6-----
2024-02-26 12:18 am W 4.1 6.0----30.05- 55.6-----
2024-02-26 12:12 am W 4.1 6.0----30.04- 55.6-----
2024-02-26 12:06 amWSW 4.1 6.0----30.04- 55.6-----
2024-02-26 12:00 amWSW 5.1 6.0----30.04+0.01 55.6-----
2024-02-25 11:54 pm W 4.1 6.0----30.04- 55.6-----
2024-02-25 11:48 pm W 4.1 7.0----30.04- 55.6-----
2024-02-25 11:42 pm W 5.1 7.0----30.04- 55.6-----
2024-02-25 11:36 pm W 1.9 5.1----30.04- 55.6-----
2024-02-25 11:30 pm W 2.9 5.1----30.05- 55.6-----
2024-02-25 11:24 pmWNW 2.9 6.0----30.05- 55.6-----
2024-02-25 11:18 pmWSW 1.9 4.1----30.04- 55.8-----
2024-02-25 11:12 pmWSW 1.9 6.0----30.05- 55.8-----
2024-02-25 11:06 pm W 5.1 8.0----30.05- 55.6-----
2024-02-25 11:00 pm W 5.1 7.0----30.05+0.03 55.4-----
2024-02-25 10:54 pm W 4.1 8.9----30.05- 55.6-----
2024-02-25 10:48 pmWSW 4.1 9.9----30.06- 55.4-----
2024-02-25 10:42 pm W 8.0 11.1----30.06- 55.2-----
2024-02-25 10:36 pm W 4.1 8.9----30.06- 55.4-----
2024-02-25 10:30 pmWSW 4.1 9.9----30.06- 55.4-----
2024-02-25 10:24 pm W 6.0 9.9----30.06- 55.2-----
2024-02-25 10:18 pmWSW 6.0 8.9----30.05- 55.2-----
2024-02-25 10:12 pm W 6.0 8.9----30.05- 55.2-----
2024-02-25 10:06 pm W 5.1 7.0----30.05- 55.2-----
2024-02-25 10:00 pm W 1.9 6.0----30.05+0.03 55.2-----
2024-02-25 09:54 pm W 4.1 7.0----30.05- 55.2-----
2024-02-25 09:48 pm W 5.1 7.0----30.05- 55.2-----
2024-02-25 09:42 pm W 4.1 6.0----30.05- 55.0-----
2024-02-25 09:36 pm W 2.9 7.0----30.05- 55.2-----
2024-02-25 09:30 pm W 5.1 7.0----30.05- 55.2-----
2024-02-25 09:24 pm W 4.1 6.0----30.04- 55.0-----
2024-02-25 09:18 pm W 4.1 6.0----30.04- 55.0-----
2024-02-25 09:12 pmWSW 4.1 6.0----30.04- 55.0-----
2024-02-25 09:06 pm W 5.1 7.0----30.04- 55.2-----
2024-02-25 09:00 pm W 5.1 7.0----30.03+0.03 55.0-----
2024-02-25 08:54 pm W 5.1 6.0----30.03- 55.2-----
2024-02-25 08:48 pm W 2.9 6.0----30.03- 55.0-----
2024-02-25 08:42 pm W 4.1 7.0----30.03- 55.2-----
2024-02-25 08:36 pm W 2.9 7.0----30.03- 55.2-----
2024-02-25 08:30 pm W 2.9 5.1----30.03- 55.2-----
2024-02-25 08:24 pm W 4.1 6.0----30.03- 55.2-----
2024-02-25 08:18 pm W 4.1 7.0----30.03- 55.2-----
2024-02-25 08:12 pm W 4.1 7.0----30.02- 55.2-----
2024-02-25 08:06 pm W 5.1 9.9----30.02- 55.2-----
2024-02-25 08:00 pm W 1.9 8.9----30.02+0.02 55.2-----
2024-02-25 07:54 pm W 6.0 8.0----30.02- 55.2-----
2024-02-25 07:48 pm W 6.0 9.9----30.02- 55.2-----
2024-02-25 07:42 pm W 6.0 9.9----30.02- 55.2-----
2024-02-25 07:36 pmWSW 5.1 8.9----30.02- 55.4-----
2024-02-25 07:30 pm W 5.1 8.9----30.02- 55.4-----
2024-02-25 07:24 pm W 4.1 7.0----30.02- 55.4-----
2024-02-25 07:18 pm W 1.9 8.0----30.02- 55.4-----
2024-02-25 07:12 pm W 2.9 8.0----30.02- 55.6-----
2024-02-25 07:06 pm W 6.0 8.0----30.02- 55.6-----
2024-02-25 07:00 pm NW 4.1 6.0----30.02- 55.6-----
2024-02-25 06:54 pmWSW 5.1 7.0----30.02- 55.6-----
2024-02-25 06:48 pmWNW 2.9 8.9----30.02- 55.4-----
2024-02-25 06:42 pmWSW 4.1 8.9----30.02- 55.6-----
2024-02-25 06:36 pm W 4.1 8.0----30.02- 55.6-----
2024-02-25 06:30 pmWSW 5.1 11.1----30.01- 55.4-----
2024-02-25 06:24 pm W 8.0 12.0----30.02- 55.4-----
2024-02-25 06:18 pm W 4.1 9.9----30.02- 55.4-----
2024-02-25 06:12 pm W 5.1 8.9----30.01- 55.6-----
2024-02-25 06:06 pm W 2.9 8.9----30.01- 55.8-----
2024-02-25 06:00 pmWSW 1.9 8.9----30.01+0.01 55.9-----
2024-02-25 05:54 pm W 5.1 13.0----30.01- 55.9-----
2024-02-25 05:48 pm SW 8.0 12.0----30.00- 55.9-----
2024-02-25 05:42 pmWSW 7.0 15.0----30.00- 55.9-----
2024-02-25 05:36 pmWSW 7.0 13.0----30.00- 55.9-----
2024-02-25 05:30 pmSSW 6.0 12.0----30.00- 56.3-----
2024-02-25 05:24 pmWSW 5.1 14.0----29.99- 56.7-----
2024-02-25 05:18 pmWSW 8.0 13.0----29.99- 56.3-----
2024-02-25 05:12 pmWSW 8.9 15.0----29.99- 56.3-----
2024-02-25 05:06 pmWSW 8.9 13.0----30.00- 56.8-----
2024-02-25 05:00 pm SW 6.0 13.0----30.00-0.01------
2024-02-25 04:54 pmWSW 11.1 14.0----30.00-------
2024-02-25 04:48 pm W 9.9 18.1----30.00- 57.0-----
2024-02-25 04:42 pmWSW 14.0 19.0----30.00- 57.0-----
2024-02-25 04:36 pmWSW 8.0 15.0----30.00- 58.1-----
2024-02-25 04:30 pm W 9.9 20.0----29.99- 57.9-----
2024-02-25 04:24 pm W 8.0 14.0----29.99- 58.3-----
2024-02-25 04:18 pmWSW 8.0 13.0----29.99-------
2024-02-25 04:12 pmWSW 8.0 11.1----29.99-------
2024-02-25 04:06 pm W 7.0 13.0----29.99-------
2024-02-25 04:00 pm W 9.9 14.0------------
2024-02-25 03:54 pm W 11.1 15.0------------
2024-02-25 03:48 pm W 9.9 13.0----29.99- 59.0-----
2024-02-25 03:42 pmWSW 8.0 13.0----29.99- 59.2-----
2024-02-25 03:36 pm W 8.9 15.9----29.99- 58.8-----
2024-02-25 03:30 pmWSW 7.0 15.0----29.99- 59.7-----
2024-02-25 03:24 pm W 7.0 12.0----29.99- 60.1-----
2024-02-25 03:18 pmWSW 7.0 12.0----29.99- 60.8-----
2024-02-25 03:12 pm W 9.9 15.9----29.99- 61.0-----
2024-02-25 03:00 pm W 7.0 11.1----29.99- 61.2-----
2024-02-25 02:54 pmWNW 5.1 8.0----29.99- 61.0-----
2024-02-25 02:48 pmWNW 4.1 6.0----29.99- 60.6-----
2024-02-25 02:42 pm NW 5.1 8.9----29.99- 58.6-----
2024-02-25 02:36 pm NW 6.0 9.9----29.99- 59.4-----
2024-02-25 02:30 pm W 5.1 8.0----30.00- 61.5-----
2024-02-25 02:24 pmWNW 2.9 8.9----30.00- 62.2-----
2024-02-25 02:18 pm W 2.9 7.0----30.00- 61.3-----
2024-02-25 02:12 pmWSW 5.1 11.1----30.01- 60.8-----
2024-02-25 02:06 pmWSW 4.1 12.0----30.01- 61.7-----
2024-02-25 02:00 pm W 6.0 11.1----30.01-0.04 60.3-----
2024-02-25 01:54 pm SW 4.1 8.9----30.01- 60.8-----
2024-02-25 01:48 pmWSW 6.0 12.0----30.01-------
2024-02-25 01:42 pmWSW 6.0 9.9----30.02-------
2024-02-25 01:36 pmWSW 6.0 11.1----30.02-------
2024-02-25 01:30 pm-------30.02-------
2024-02-25 01:24 pm-------30.02-------
2024-02-25 01:18 pm W 8.0 12.0----30.02- 59.9-----
2024-02-25 01:12 pmWSW 2.9 8.9----30.02- 60.8-----
2024-02-25 01:06 pm W 7.0 13.0----30.02- 59.9-----
2024-02-25 01:00 pm W 6.0 13.0----30.02-0.04------
2024-02-25 12:54 pm W 5.1 11.1----30.02-------
2024-02-25 12:48 pm W 8.0 11.1----30.02- 60.4-----
2024-02-25 12:42 pm W 8.0 11.1----30.03- 60.1-----
2024-02-25 12:36 pmWSW 5.1 8.9----30.03- 62.1-----
2024-02-25 12:30 pm SW 4.1 7.0----30.04- 61.0-----
2024-02-25 12:24 pm W 6.0 11.1----30.04- 60.1-----
2024-02-25 12:18 pm W 5.1 8.9----30.04-------
2024-02-25 12:12 pm W 1.9 11.1----30.04-------
2024-02-25 12:06 pm W 5.1 11.1----30.05-------
2024-02-25 12:00 pm W 7.0 12.0------------
2024-02-25 11:54 am W 7.0 12.0------------
2024-02-25 11:48 amWSW 5.1 11.1----30.05- 60.4-----
2024-02-25 11:42 am SE 1.0 5.1----30.05- 58.1-----
2024-02-25 11:36 am E 2.9 4.1----30.05- 57.2-----
2024-02-25 11:30 am SE 4.1 5.1----30.05- 56.8-----
2024-02-25 11:24 am SE 2.9 5.1----30.05- 56.8-----
2024-02-25 11:18 amESE 5.1 6.0----30.05- 56.3-----
2024-02-25 11:12 am SE 6.0 7.0----30.05- 56.3-----
2024-02-25 11:06 amESE 5.1 6.0----30.05- 56.3-----
2024-02-25 11:00 am E 1.9 2.9----30.06+0.02 56.7-----
2024-02-25 10:54 amENE 1.9 2.9----30.06- 56.1-----
2024-02-25 10:48 am SE 1.9 2.9----30.06- 56.5-----
2024-02-25 10:42 am E 4.1 5.1----30.06- 55.8-----
2024-02-25 10:36 amESE 4.1 5.1----30.06- 55.8-----
2024-02-25 10:30 am E 2.9 4.1----30.06-------
2024-02-25 10:24 am E 2.9 4.1----30.06-------
2024-02-25 10:18 amENE 2.9 4.1----30.06- 55.8-----
2024-02-25 10:12 am E 2.9 4.1----30.06- 55.8-----
2024-02-25 10:06 amENE 2.9 4.1----30.06- 55.6-----
2024-02-25 10:00 am E 4.1 5.1----30.06+0.04 55.6-----
2024-02-25 09:54 am E 5.1 6.0----30.05- 55.4-----
2024-02-25 09:48 am E 6.0 7.0----30.05- 55.4-----
2024-02-25 09:42 amESE 7.0 8.0----30.05- 55.4-----
2024-02-25 09:36 am SE 8.0 8.9----30.05- 55.2-----
2024-02-25 09:30 am SE 8.0 9.9----30.05- 55.2-----
2024-02-25 09:24 am SE 8.0 9.9----30.05- 55.2-----
2024-02-25 09:18 am SE 8.0 8.9----30.05- 55.4-----
2024-02-25 09:12 am SE 7.0 8.9----30.05- 55.8-----
2024-02-25 09:06 am SE 6.0 8.0----30.04- 56.8-----
2024-02-25 09:00 am SE 7.0 8.9----30.04+0.03 56.5-----
2024-02-25 08:54 am SE 6.0 7.0----30.04- 56.1-----
2024-02-25 08:48 am SE 5.1 6.0----30.04- 55.8-----
2024-02-25 08:42 am SE 5.1 6.0----30.04- 55.8-----
2024-02-25 08:36 amESE 5.1 6.0----30.04- 55.9-----
2024-02-25 08:30 amESE 5.1 5.1----30.04- 56.3-----
2024-02-25 08:24 am SE 5.1 5.1----30.04- 56.1-----
2024-02-25 08:18 am E 1.9 4.1----30.03-------
2024-02-25 08:12 amESE 4.1 5.1----30.03-------
2024-02-25 08:06 am E 2.9 5.1----30.04-------
2024-02-25 08:00 am SE 5.1 5.1----30.03+0.03------
2024-02-25 07:54 am SE 4.1 4.1----30.03-------
2024-02-25 07:48 amESE 1.9 2.9----30.03- 55.8-----
2024-02-25 07:42 amESE 1.0 1.9----30.02- 56.1-----
2024-02-25 07:36 amESE 1.9 2.9----30.02- 55.6-----
2024-02-25 07:30 amESE 2.9 2.9------ 55.4-----
2024-02-25 07:24 amESE 2.9 4.1------ 55.0-----
2024-02-25 07:18 am E 2.9 2.9----30.02-------
2024-02-25 07:12 amENE 1.9 4.1----30.02-------
2024-02-25 07:06 amENE 1.9 2.9----30.02-------
2024-02-25 07:00 am- 0.0 1.9----30.02+0.02------
2024-02-25 06:54 amWNW 1.0 1.9----30.01-------
2024-02-25 06:48 am-------30.01- 55.2-----
2024-02-25 06:42 am-------30.01- 55.2-----
2024-02-25 06:36 am-------30.01- 55.4-----
2024-02-25 06:30 amWSW 1.9 4.1------ 55.4-----
2024-02-25 06:24 am W 1.9 4.1------ 55.2-----
2024-02-25 06:18 am W 1.9 5.1----30.01-------
2024-02-25 06:12 am W 4.1 5.1----30.01-------
2024-02-25 06:06 am NW 2.9 4.1----30.01-------
2024-02-25 06:00 amWNW 2.9 2.9----30.01-------
2024-02-25 05:54 am NW 2.9 2.9----30.01-------
2024-02-25 05:48 am N 1.9 2.9----30.01- 55.0-----
2024-02-25 05:42 am- 0.0 2.9----30.01- 55.0-----
2024-02-25 05:36 amNNE 2.9 4.1----30.01- 55.4-----
2024-02-25 05:30 am N 1.0 4.1----30.01- 55.6-----
2024-02-25 05:24 am NW 1.9 1.9----30.01- 55.8-----
2024-02-25 05:18 am- 0.0 1.0----30.00- 55.9-----
2024-02-25 05:12 amWSW 1.0 1.9----30.01- 55.8-----
2024-02-25 05:06 am S 1.0 4.1----30.00- 55.9-----
2024-02-25 05:00 am NE 4.1 5.1----30.00+0.00------
2024-02-25 04:54 am NE 5.1 6.0----30.00-------
2024-02-25 04:48 am NE 4.1 5.1----30.00- 55.2-----
2024-02-25 04:42 am NE 5.1 5.1----30.00- 55.6-----
2024-02-25 04:36 amNNE 1.9 2.9----30.00- 55.8-----
2024-02-25 04:30 am NE 1.9 2.9----30.00- 55.4-----
2024-02-25 04:24 am NE 1.9 2.9----30.00- 55.4-----
2024-02-25 04:18 am-------30.00- 55.6-----
2024-02-25 04:12 am-------30.00- 55.0-----
2024-02-25 04:06 am-------30.00- 54.7-----
2024-02-25 04:00 am E 4.1 4.1----30.00+0.00 54.7-----
2024-02-25 03:54 amESE 1.9 2.9----30.00- 55.0-----
2024-02-25 03:48 am SE 1.9 2.9----30.00- 55.0-----
2024-02-25 03:42 am SE 2.9 4.1----29.99- 55.0-----
2024-02-25 03:36 am SE 2.9 4.1----29.99- 55.2-----
2024-02-25 03:30 am SE 1.9 1.9----29.99-------
2024-02-25 03:24 am- 0.0 1.0----29.99-------
2024-02-25 03:18 am- 0.0 1.9------------
2024-02-25 03:12 am SE 1.0 2.9------------
2024-02-25 03:06 am SE 1.0 1.9------------
2024-02-25 03:00 amSSE 1.0 1.9------------
2024-02-25 02:54 am S 1.0 1.9------------
2024-02-25 02:48 amSSE 1.0 1.0----29.99- 55.2-----
2024-02-25 02:42 am SE 1.0 1.0----29.99- 55.4-----
2024-02-25 02:36 am- 0.0 1.0----29.99- 55.4-----
2024-02-25 02:30 amENE 1.0 1.9----29.99- 55.8-----
2024-02-25 02:24 am- 0.0 1.0----29.99- 55.9-----
2024-02-25 02:18 am- 0.0 1.9----30.00- 55.6-----
2024-02-25 02:12 am S 1.0 2.9----30.00- 55.8-----
2024-02-25 02:06 am S 1.0 1.9----30.00- 55.8-----
2024-02-25 02:00 am- 0.0 1.9----30.00+0.00 55.9-----
2024-02-25 01:54 amSSW 1.9 1.9----30.00- 56.8-----